Latest Coastal Weather Observations for Port Lincoln Airport

IDS60701

Issued at 4:51 am CDT Sunday 11 December 2016 (issued every 10 minutes, with the page automatically refreshed every 10 minutes)

About coastal observations | Map of coastal stations | Coastal observations for SA | Marine services | Other Formats
Station Details ID: 018192 Name: PORT LINCOLN AWS Lat: -34.60 Lon: 135.88 Height: 8.5 m
Data from the previous 72 hours. | See also: Recent months at Port Lincoln Airport
Date/Time
CDT
Temp
°C
Wind Pressure Rain since
9am
mm
Weather Cloud Vis
km
Sea
Height
m
Swell
Dir  Spd
kts
Gust
kts
hPa Trend Height
m
Period
s
Dir
11/04:30am 15.2 E 12 15 1021.3 - 0.0 - Cloudy 10 - - - -
11/04:00am 15.0 ESE 11 15 1021.4 - 0.0 - Cloudy 10 - - - -
11/03:37am 15.0 E 11 14 1021.4 - 0.0 - Partly cloudy 10 - - - -
11/03:30am 14.9 E 12 15 1021.5 - 0.0 - Partly cloudy 10 - - - -
11/03:00am 14.6 ESE 11 14 1021.7 - 0.0 - Partly cloudy 10 - - - -
11/02:30am 14.7 ESE 10 13 1022.0 - 0.0 - Partly cloudy 10 - - - -
11/02:00am 14.9 ESE 12 15 1022.3 - 0.0 - Partly cloudy 10 - - - -
11/01:30am 15.1 ESE 10 13 1022.4 - 0.0 - Partly cloudy 10 - - - -
11/01:00am 15.2 ESE 11 13 1022.7 - 0.0 - Partly cloudy 10 - - - -
11/12:30am 16.1 ESE 11 14 1022.8 - 0.0 - Cloudy 10 - - - -
11/12:00am 16.4 ESE 10 13 1023.0 - 0.0 - Mostly cloudy 10 - - - -
 
Date/Time
CDT
Temp
°C
Wind Pressure Rain since
9am
mm
Weather Cloud Vis
km
Sea
Height
m
Swell
Dir  Spd
kts
Gust
kts
hPa Trend Height
m
Period
s
Dir
10/11:30pm 16.1 SE 9 11 1023.0 - 0.0 - Partly cloudy 10 - - - -
10/11:00pm 15.0 SSE 9 11 1023.1 - 0.0 - - 10 - - - -
10/10:30pm 15.2 SSE 11 13 1023.3 - 0.0 - - 10 - - - -
10/10:00pm 15.3 SSE 12 15 1023.1 - 0.0 - - 10 - - - -
10/09:30pm 15.4 SSE 12 16 1023.0 - 0.0 - - 10 - - - -
10/09:00pm 15.4 SSE 12 15 1022.8 - 0.0 - - 10 - - - -
10/08:30pm 16.0 SSE 13 16 1022.6 - 0.0 - - 10 - - - -
10/08:00pm 16.6 SSE 14 17 1022.5 - 0.0 - - 10 - - - -
10/07:30pm 17.3 SSE 14 17 1022.3 - 0.0 - - 10 - - - -
10/07:00pm 18.2 SE 15 19 1021.9 - 0.0 - - 10 - - - -
10/06:30pm 18.4 SE 16 19 1021.7 - 0.0 - - 10 - - - -
10/06:00pm 18.7 SE 16 19 1021.7 - 0.0 - - 10 - - - -
10/05:30pm 19.3 SSE 17 20 1021.8 - 0.0 - - 10 - - - -
10/05:00pm 20.2 SE 16 19 1021.9 - 0.0 - - 10 - - - -
10/04:30pm 20.3 SE 16 21 1022.1 - 0.0 - - 10 - - - -
10/04:00pm 20.2 SE 15 19 1022.3 - 0.0 - - 10 - - - -
10/03:30pm 20.4 SE 15 19 1022.5 - 0.0 - - 10 - - - -
10/03:00pm 21.0 SE 13 18 1022.8 - 0.0 - - 10 - - - -
10/02:30pm 20.7 SE 11 16 1023.2 - 0.0 - - 10 - - - -
10/02:00pm 20.3 SE 9 13 1023.5 - 0.0 - - 10 - - - -
10/01:30pm 19.5 SSE 11 14 1023.7 - 0.0 - - 10 - - - -
10/01:00pm 19.1 SSE 10 13 1024.0 - 0.0 - - 10 - - - -
10/12:30pm 19.5 E 9 13 1024.2 - 0.0 - - 10 - - - -
10/12:00pm 19.5 E 10 12 1024.0 - 0.0 - - 10 - - - -
10/11:30am 18.9 ENE 9 13 1024.1 - 0.0 - - 10 - - - -
10/11:00am 18.0 E 9 13 1024.3 - 0.0 - - 10 - - - -
10/10:30am 19.6 E 8 12 1024.1 - 0.0 - Partly cloudy 10 - - - -
10/10:00am 18.4 E 9 13 1024.2 - 0.0 - Partly cloudy 10 - - - -
10/09:30am 17.6 ENE 9 13 1024.3 - 0.0 - Partly cloudy 10 - - - -
10/09:00am 16.9 ENE 9 11 1024.1 - 0.0 - Mostly cloudy 10 - - - -
10/08:30am 17.4 ENE 10 13 1023.9 - 0.0 - Partly cloudy 10 - - - -
10/08:00am 16.6 ENE 10 14 1023.5 - 0.0 - Partly cloudy 10 - - - -
10/07:30am 15.8 ENE 11 14 1023.3 - 0.0 - Partly cloudy 10 - - - -
10/07:00am 15.0 ENE 9 14 1023.0 - 0.0 - Partly cloudy 10 - - - -
10/06:30am 14.2 E 8 10 1022.7 - 0.0 - Partly cloudy 10 - - - -
10/06:00am 14.0 ENE 9 11 1022.6 - 0.0 - Mostly cloudy 10 - - - -
10/05:30am 14.1 E 8 10 1022.4 - 0.0 - Cloudy 10 - - - -
10/05:00am 14.0 E 10 13 1022.2 - 0.0 - Partly cloudy 10 - - - -
10/04:30am 14.2 E 10 13 1022.2 - 0.0 - Partly cloudy 10 - - - -
10/04:00am 14.1 E 10 13 1022.3 - 0.0 - Partly cloudy 10 - - - -
10/03:30am 14.1 E 9 12 1022.4 - 0.0 - Partly cloudy 10 - - - -
10/03:00am 14.0 E 9 11 1022.4 - 0.0 - Mostly clear 10 - - - -
10/02:30am 13.9 E 8 11 1022.6 - 0.0 - Partly cloudy 10 - - - -
10/02:00am 13.4 E 6 9 1022.8 - 0.0 - Partly cloudy 10 - - - -
10/01:30am 12.8 ESE 7 9 1023.0 - 0.0 - - 10 - - - -
10/01:00am 13.3 SE 8 11 1023.3 - 0.0 - - 10 - - - -
10/12:30am 13.6 SE 10 12 1023.5 - 0.0 - - 10 - - - -
10/12:00am 13.6 SE 9 12 1023.8 - 0.0 - - 10 - - - -
 
Date/Time
CDT
Temp
°C
Wind Pressure Rain since
9am
mm
Weather Cloud Vis
km
Sea
Height
m
Swell
Dir  Spd
kts
Gust
kts
hPa Trend Height
m
Period
s
Dir
09/11:30pm 13.7 SE 11 13 1023.7 - 0.0 - - 10 - - - -
09/11:00pm 13.6 SSE 9 11 1023.9 - 0.0 - - 10 - - - -
09/10:30pm 13.7 SSE 10 12 1023.9 - 0.0 - - 10 - - - -
09/10:00pm 13.7 SSE 10 13 1024.0 - 0.0 - - 10 - - - -
09/09:30pm 13.8 SSE 10 13 1023.8 - 0.0 - - 10 - - - -
09/09:00pm 14.2 SSE 12 14 1023.6 - 0.0 - - 10 - - - -
09/08:30pm 14.8 SSE 11 14 1023.4 - 0.0 - - 10 - - - -
09/08:00pm 15.8 SE 11 14 1023.2 - 0.0 - - 10 - - - -
09/07:30pm 16.6 SE 12 14 1023.0 - 0.0 - - 10 - - - -
09/07:00pm 16.8 SE 12 15 1022.8 - 0.0 - - 10 - - - -
09/06:30pm 17.0 SE 12 15 1022.5 - 0.0 - - 10 - - - -
09/06:00pm 17.3 SE 11 15 1022.5 - 0.0 - - 10 - - - -
09/05:30pm 18.4 ESE 11 14 1022.5 - 0.0 - - 10 - - - -
09/05:00pm 18.2 ESE 11 15 1022.7 - 0.0 - - 10 - - - -
09/04:30pm 17.7 ESE 9 14 1022.8 - 0.0 - - 10 - - - -
09/04:00pm 17.8 SE 9 14 1022.9 - 0.0 - Partly cloudy 10 - - - -
09/03:30pm 18.6 ESE 10 14 1023.2 - 0.0 - Partly cloudy 10 - - - -
09/03:00pm 18.5 E 10 15 1023.3 - 0.0 - Mostly clear 10 - - - -
09/02:30pm 17.9 E 11 16 1023.4 - 0.0 - Partly cloudy 10 - - - -
09/02:00pm 18.2 E 11 15 1023.4 - 0.0 - Partly cloudy 10 - - - -
09/01:30pm 17.7 ESE 9 15 1023.8 - 0.0 - Cloudy 10 - - - -
09/01:00pm 17.2 ESE 8 12 1024.0 - 0.0 - Partly cloudy 10 - - - -
09/12:30pm 16.8 SE 10 15 1024.0 - 0.0 - Cloudy 10 - - - -
09/12:00pm 17.1 SE 9 13 1023.9 - 0.0 - Cloudy 10 - - - -
09/11:30am 17.1 SSE 10 13 1023.9 - 0.0 - Cloudy 10 - - - -
09/11:00am 17.1 SE 9 14 1023.9 - 0.0 - Cloudy 10 - - - -
09/10:30am 16.6 SSE 9 11 1023.7 - 0.0 - Cloudy 10 - - - -
09/10:00am 16.1 S 8 11 1023.7 - 0.0 - Cloudy 10 - - - -
09/09:30am 16.1 SSE 10 13 1023.6 - 0.0 - Partly cloudy 10 - - - -
09/09:00am 15.4 S 8 12 1023.7 - 0.2 - Cloudy 10 - - - -
09/08:30am 15.1 S 9 13 1023.2 - 0.2 - Cloudy 10 - - - -
09/08:00am 14.8 SE 8 10 1023.0 - 0.2 - Cloudy 10 - - - -
09/07:30am 14.7 SSE 10 15 1022.5 - 0.2 - Cloudy 10 - - - -
09/07:00am 14.3 SSE 10 14 1022.0 - 0.2 - Cloudy 10 - - - -
09/06:30am 14.0 SSE 12 16 1021.6 - 0.2 - Cloudy 10 - - - -
09/06:00am 13.2 WSW 6 9 1021.4 - 0.2 - Cloudy 10 - - - -
09/05:30am 12.8 WSW 7 9 1021.1 - 0.2 - Cloudy 10 - - - -
09/05:00am 12.5 WSW 6 8 1020.6 - 0.2 - Cloudy 10 - - - -
09/04:30am 12.5 SW 7 11 1020.4 - 0.2 - Partly cloudy 10 - - - -
09/04:00am 13.2 S 13 18 1020.1 - 0.2 - Partly cloudy 10 - - - -
09/03:30am 13.8 S 12 18 1019.8 - 0.2 - Cloudy 10 - - - -
09/03:00am 13.0 SW 7 9 1019.8 - 0.2 - Cloudy 10 - - - -
09/02:30am 12.2 SW 7 9 1019.8 - 0.2 - Partly cloudy 10 - - - -
09/02:00am 11.9 SW 7 9 1020.1 - 0.2 - - 10 - - - -
09/01:30am 13.0 SSW 11 15 1020.1 - 0.2 - Partly cloudy 10 - - - -
09/01:00am 13.9 SSW 14 19 1019.8 - 0.2 - Partly cloudy 10 - - - -
09/12:30am 13.7 S 12 16 1019.8 - 0.2 - Partly cloudy 10 - - - -
09/12:00am 13.8 SSW 10 16 1019.8 - 0.2 - Cloudy 10 - - - -
 
Date/Time
CDT
Temp
°C
Wind Pressure Rain since
9am
mm
Weather Cloud Vis
km
Sea
Height
m
Swell
Dir  Spd
kts
Gust
kts
hPa Trend Height
m
Period
s
Dir
08/11:30pm 14.1 SSW 12 16 1019.6 - 0.2 - Partly cloudy 10 - - - -
08/11:00pm 14.5 S 18 24 1019.4 - 0.2 - Partly cloudy 10 - - - -
08/10:49pm 14.9 S 17 24 1019.2 - 0.2 - Partly cloudy 10 - - - -
08/10:30pm 14.5 SW 11 14 1019.1 - 0.2 - Partly cloudy 10 - - - -
08/10:00pm 14.2 SSW 11 15 1018.8 - 0.2 - Partly cloudy 10 - - - -
08/09:30pm 14.5 SSW 12 16 1018.5 - 0.2 - Partly cloudy 10 - - - -
08/09:00pm 14.1 SSW 11 15 1018.3 - 0.2 - - 10 - - - -
08/08:30pm 14.7 SSW 13 17 1017.9 - 0.2 - Partly cloudy 10 - - - -
08/08:00pm 15.2 SW 17 23 1017.4 - 0.2 - Partly cloudy 10 - - - -
08/07:30pm 16.1 SW 15 21 1016.9 - 0.2 - Partly cloudy 10 - - - -
08/07:00pm 16.3 SW 17 22 1016.4 - 0.2 - Cloudy 10 - - - -
08/06:30pm 16.8 SW 18 25 1015.8 - 0.2 - Partly cloudy 10 - - - -
08/06:12pm 16.7 SW 18 28 1015.5 - 0.2 - Partly cloudy 10 - - - -
08/06:00pm 17.3 SW 19 25 1015.3 - 0.2 - Partly cloudy 10 - - - -
08/05:30pm 17.6 SW 20 27 1015.0 - 0.2 - Partly cloudy 10 - - - -
08/05:00pm 17.5 SW 19 27 1014.6 - 0.2 - Partly cloudy 10 - - - -
08/04:30pm 19.3 SW 21 29 1014.2 - 0.2 - Partly cloudy 10 - - - -
08/04:00pm 18.1 SW 21 27 1014.1 - 0.2 - Partly cloudy 10 - - - -
08/03:30pm 20.2 SW 19 29 1013.6 - 0.2 - Partly cloudy 10 - - - -
08/03:20pm 19.6 SW 19 30 1013.5 - 0.2 - Partly cloudy 10 - - - -
08/03:00pm 20.0 SW 21 29 1013.5 - 0.2 - Partly cloudy 10 - - - -
08/02:30pm 20.5 WSW 22 31 1013.5 - 0.2 - Partly cloudy 10 - - - -
08/02:00pm 19.2 SW 20 26 1013.6 - 0.2 - Partly cloudy 10 - - - -
08/01:30pm 17.7 WSW 20 27 1013.5 - 0.2 - Partly cloudy 10 - - - -
08/01:00pm 18.6 WSW 20 28 1013.4 - 0.2 - Partly cloudy 10 - - - -
08/12:38pm 17.9 SW 19 29 1013.2 - 0.0 - Partly cloudy 10 - - - -
08/12:30pm 17.6 WSW 18 27 1013.2 - 0.0 - Partly cloudy 10 - - - -
08/12:14pm 18.0 WSW 19 29 1012.8 - 0.0 - Partly cloudy 10 - - - -
08/12:00pm 18.2 WSW 20 28 1012.6 - 0.0 - Cloudy 10 - - - -
08/11:30am 18.8 WSW 21 28 1012.0 - 0.0 - Partly cloudy 10 - - - -
08/11:00am 19.6 WSW 21 31 1011.8 - 0.0 - - 10 - - - -
08/10:30am 19.2 WSW 22 29 1011.3 - 0.0 - Partly cloudy 10 - - - -
08/10:00am 19.2 SW 21 28 1010.9 - 0.0 - Partly cloudy 10 - - - -
08/09:30am 17.6 WSW 21 27 1010.7 - 0.0 - Partly cloudy 10 - - - -
08/09:12am 17.2 WSW 18 28 1010.8 - 0.0 - Partly cloudy 10 - - - -
08/09:00am 16.6 WSW 19 28 1010.6 - 0.6 - Mostly cloudy 10 - - - -
08/08:58am 17.1 WSW 18 28 1010.6 - 0.6 - Partly cloudy 10 - - - -
08/08:30am 15.9 WSW 19 25 1010.1 - 0.6 - Partly cloudy 10 - - - -
08/08:00am 16.6 WSW 18 26 1009.6 - 0.6 - Partly cloudy 10 - - - -
08/07:54am 16.4 WSW 16 26 1009.3 - 0.6 - - 10 - - - -
08/07:30am 15.5 WSW 15 21 1009.0 - 0.6 - Partly cloudy 10 - - - -
08/07:00am 14.9 WSW 16 24 1008.7 - 0.6 - Partly cloudy 10 - - - -
08/06:30am 14.0 WSW 12 17 1008.0 - 0.6 - Partly cloudy 10 - - - -
08/06:23am 14.0 WSW 15 25 1008.0 - 0.6 - Partly cloudy 10 - - - -
08/06:00am 14.3 WSW 12 17 1007.8 - 0.6 - Cloudy 10 - - - -
08/05:30am 14.6 WSW 14 20 1007.3 - 0.6 - Partly cloudy 10 - - - -
08/05:00am 14.0 WSW 13 17 1006.8 - 0.6 - - 10 - - - -

Other Formats:

Comma delimited format used in spreadsheet applications
http://www.bom.gov.au/fwo/IDS60701/IDS60701.95661.axf

JavaScript Object Notation format (JSON) in row-major order
http://www.bom.gov.au/fwo/IDS60701/IDS60701.95661.json